User: anonymous   Login
Location: Unspecified
(0.0000°N, 0.0000°E)
Time: 20:07:57
(UTC+00:00)
Language:

DOVE 4 - Orbit

View from above orbital plane
View from above orbital plane
View from above satellite
View from above satellite

Ground track
Ground track

The orbit data is extracted from the following two-line orbital elements,

1 39430U 13066Q   19287.42309166  .00000116  00000-0  30483-4 0  9993
2 39430  97.7590 236.2937 0149877 242.9748 115.6072 14.59295347313774
Epoch (UTC): 14 October 2019 10:09:15
Eccentricity: 0.0149877
inclination: 97.7590°
perigee height: 589 km
apogee height: 801 km
right ascension of ascending node: 236.2937°
argument of perigee: 242.9748°
revolutions per day: 14.59295347
mean anomaly at epoch: 115.6072°
orbit number at epoch: 31377

The dashed part of the orbit path shows where the satellite is in the earth's shadow,  

DLR